Timestamp,Net Demand,Generation,Import,Solar,Wind,STOR,Other
2024-05-01T19:10:00,98.32,1.69,96.63,0.00,0.00,0.00,1.69
2024-05-01T19:15:00,97.95,1.67,96.28,0.00,0.00,0.00,1.67
2024-05-01T19:20:00,97.82,1.71,96.11,0.00,0.00,0.00,1.71
2024-05-01T19:25:00,97.73,1.64,96.09,0.00,0.00,0.00,1.64
2024-05-01T19:30:00,97.89,1.69,96.20,0.00,0.00,0.00,1.69
2024-05-01T19:35:00,97.74,1.72,96.02,0.00,0.00,0.00,1.72
2024-05-01T19:40:00,97.55,1.68,95.87,0.00,0.00,0.00,1.68
2024-05-01T19:45:00,97.54,1.61,95.93,0.00,0.00,0.00,1.61
2024-05-01T19:50:00,97.51,1.54,95.97,0.00,0.00,0.00,1.54
2024-05-01T19:55:00,97.49,1.57,95.92,0.00,0.00,0.00,1.57
2024-05-01T20:00:00,97.39,1.58,95.81,0.00,0.00,0.00,1.58
2024-05-01T20:05:00,97.25,1.57,95.68,0.00,0.00,0.00,1.57
2024-05-01T20:10:00,97.16,1.55,95.61,0.00,0.00,0.00,1.55
2024-05-01T20:15:00,97.16,1.57,95.59,0.00,0.00,0.00,1.57
2024-05-01T20:20:00,97.29,1.62,95.67,0.00,0.00,0.00,1.62
2024-05-01T20:25:00,97.39,1.72,95.67,0.00,0.00,0.00,1.72
2024-05-01T20:30:00,97.55,1.75,95.80,0.00,0.00,0.00,1.75
2024-05-01T20:35:00,97.89,1.81,96.08,0.00,0.00,0.00,1.81
2024-05-01T20:40:00,97.77,1.81,95.96,0.00,0.00,0.00,1.81
2024-05-01T20:45:00,97.76,1.83,95.93,0.00,0.00,0.00,1.83
2024-05-01T20:50:00,97.91,1.8,96.11,0.00,0.00,0.00,1.80
2024-05-01T20:55:00,97.69,1.78,95.91,0.00,0.00,0.00,1.78
2024-05-01T21:00:00,97.69,1.8,95.89,0.00,0.00,0.00,1.80
2024-05-01T21:05:00,97.49,1.8,95.69,0.00,0.00,0.00,1.80
2024-05-01T21:10:00,97.36,1.83,95.53,0.00,0.00,0.00,1.83
2024-05-01T21:15:00,97.21,1.79,95.42,0.00,0.00,0.00,1.79
2024-05-01T21:20:00,97.24,1.82,95.42,0.00,0.00,0.00,1.82
2024-05-01T21:25:00,97.42,1.77,95.65,0.00,0.00,0.00,1.77
2024-05-01T21:30:00,97.1,1.84,95.26,0.00,0.00,0.00,1.84
2024-05-01T21:35:00,96.65,1.82,94.83,0.00,0.00,0.00,1.82
2024-05-01T21:40:00,96.48,1.88,94.60,0.00,0.00,0.00,1.88
2024-05-01T21:45:00,96.48,1.91,94.57,0.00,0.00,0.00,1.91
2024-05-01T21:50:00,96.37,1.9,94.47,0.00,0.00,0.00,1.90
2024-05-01T21:55:00,96.54,1.9,94.64,0.00,0.00,0.00,1.90
2024-05-01T22:00:00,96.07,1.92,94.15,0.00,0.00,0.00,1.92
2024-05-01T22:05:00,95.51,1.85,93.66,0.00,0.00,0.00,1.85
2024-05-01T22:10:00,95.51,1.9,93.61,0.00,0.00,0.00,1.90
2024-05-01T22:15:00,94.79,1.93,92.86,0.00,0.00,0.00,1.93
2024-05-01T22:20:00,94.91,1.94,92.97,0.00,0.00,0.00,1.94
2024-05-01T22:25:00,94.88,1.94,92.94,0.00,0.00,0.00,1.94
2024-05-01T22:30:00,94.9,1.88,93.02,0.00,0.00,0.00,1.88
2024-05-01T22:35:00,94.95,1.78,93.17,0.00,0.00,0.00,1.78
2024-05-01T22:40:00,94.76,1.8,92.96,0.00,0.00,0.00,1.80
2024-05-01T22:45:00,94.74,1.82,92.92,0.00,0.00,0.00,1.82
2024-05-01T22:50:00,94.44,1.79,92.65,0.00,0.00,0.00,1.79
2024-05-01T22:55:00,94.11,1.8,92.31,0.00,0.00,0.00,1.80
2024-05-01T23:00:00,94.14,1.75,92.39,0.00,0.00,0.00,1.75
2024-05-01T23:05:00,94.1,1.71,92.39,0.00,0.00,0.00,1.71
2024-05-01T23:10:00,94.05,1.73,92.32,0.00,0.00,0.00,1.73
2024-05-01T23:15:00,93.73,1.7,92.03,0.00,0.00,0.00,1.70
2024-05-01T23:20:00,93.54,1.68,91.86,0.00,0.00,0.00,1.68
2024-05-01T23:25:00,93.2,1.68,91.52,0.00,0.00,0.00,1.68
2024-05-01T23:30:00,93.33,1.71,91.62,0.00,0.00,0.00,1.71
2024-05-01T23:35:00,92.87,1.68,91.19,0.00,0.00,0.00,1.68
2024-05-01T23:40:00,92.93,1.75,91.18,0.00,0.00,0.00,1.75
2024-05-01T23:45:00,92.82,1.81,91.01,0.00,0.00,0.00,1.81
2024-05-01T23:50:00,92.65,1.8,90.85,0.00,0.00,0.00,1.80
2024-05-01T23:55:00,92.55,1.81,90.74,0.00,0.00,0.00,1.81
2024-05-02T00:00:00,92.71,1.76,90.95,0.00,0.00,0.00,1.76
2024-05-02T00:05:00,92.67,1.81,90.86,0.00,0.00,0.00,1.81
2024-05-02T00:10:00,92.77,1.95,90.82,0.00,0.00,0.00,1.95
2024-05-02T00:15:00,92.76,1.99,90.77,0.00,0.00,0.00,1.99
2024-05-02T00:20:00,92.94,2.03,90.91,0.00,0.00,0.00,2.03
2024-05-02T00:25:00,92.8,2.05,90.75,0.00,0.00,0.00,2.05
2024-05-02T00:30:00,92.57,2.04,90.53,0.00,0.00,0.00,2.04
2024-05-02T00:35:00,92.51,1.97,90.54,0.00,0.00,0.00,1.97
2024-05-02T00:40:00,92.37,1.96,90.41,0.00,0.00,0.00,1.96
2024-05-02T00:45:00,92.57,2.07,90.50,0.00,0.00,0.00,2.07
2024-05-02T00:50:00,92.81,2.01,90.80,0.00,0.00,0.00,2.01
2024-05-02T00:55:00,92.65,1.9,90.75,0.00,0.00,0.00,1.90
2024-05-02T01:00:00,92.78,1.81,90.97,0.00,0.00,0.00,1.81
2024-05-02T01:05:00,92.71,1.75,90.96,0.00,0.00,0.00,1.75
